Flag for Norway Weather past 2 weeks in Langesund, Norway

Now
50 °F

Cool.


Feels Like: 50 °F
Forecast: 43 / 61 °F
Wind: 1 mph from North

Location: Jomfruland Fyr

Current Time: May 26, 2015 at 12:49:53 AM

Latest Report: May 26, 2015 at 12:00 AM


Visibility: N/A

Pressure: 29.75 "Hg

Humidity: 69%

Dew point: 40 °F

Location of LangesundLocation

Historic Weather in Langesund — Graph

°F

Langesund temperature yesterday

Maximum temperature yesterday: 54 °F (at 3:00 PM)
Minimum temperature yesterday: 44 °F (at 4:00 AM)
Average temperature yesterday: 50 °F

Past Weeks' High & Low Weather Summary

 TemperatureHumidityPressure
High63 °F (May 23, 2:00 PM)95% (May 25, 1:00 AM)30.16 "Hg (May 25, 1:00 AM)
Low40 °F (May 18, 5:00 AM)27% (May 23, 6:00 PM)29.35 "Hg (May 19, 6:00 AM)
Average50 °F73%29.82 "Hg
* Reported May 10 11:00 PM — May 25 11:00 PM, Langesund, Weather by CustomWeather, © 2015

Note: Actual official high and low records may vary slightly from our data, if they occured in-between our weather recording intervals... More about our weather records

Advertising

Langesund weather history for previous 24 hours

 ConditionsComfort  
Time TempWeatherWind HumidityBarometerVisibility
11:00 PM
Mon, May 25
51 °FCool.2 mph69%29.75 "HgN/A
10:00 PM52 °FCool.6 mph62%29.74 "HgN/A
9:00 PM53 °FCool.6 mph63%29.74 "HgN/A
8:00 PM52 °FCool.5 mph79%29.73 "HgN/A
7:00 PM52 °FCool.9 mph71%29.72 "HgN/A
6:00 PM52 °FCool.7 mph79%29.72 "HgN/A
5:00 PM52 °FCool.7 mph78%29.73 "HgN/A
4:00 PM52 °FCool.8 mph77%29.74 "HgN/A
3:00 PM54 °FCool.8 mph65%29.74 "HgN/A
2:00 PM53 °FCool.7 mph74%29.75 "HgN/A
1:00 PM52 °FCool.7 mph75%29.75 "HgN/A
12:00 PM52 °FCool.10 mph73%29.75 "HgN/A
11:00 AM53 °FCool.8 mph69%29.75 "HgN/A
10:00 AM53 °FCool.3 mph64%29.76 "HgN/A
9:00 AM52 °FCool.3 mph59%29.76 "HgN/A
8:00 AM49 °FCool.7 mph66%29.75 "HgN/A
7:00 AM47 °FCool.5 mph72%29.75 "HgN/A
6:00 AM44 °FQuite cool.7 mph79%29.75 "HgN/A
5:00 AM44 °FQuite cool.7 mph83%29.76 "HgN/A
4:00 AM44 °FQuite cool.6 mph83%29.76 "HgN/A
3:00 AM46 °FCool.7 mph83%29.76 "HgN/A
2:00 AM46 °FCool.5 mph92%29.75 "HgN/A
1:00 AM48 °FCool.5 mph95%29.76 "HgN/A
12:00 AM48 °FCool.3 mph94%29.77 "HgN/A
Weather by CustomWeather, © 2015

See weather overviewHow to use our weather pages